Theta_e
311 310 310 310 310 310 309 309 309 310 312 311 311 311 311 311 311 311 311 311 312 311 310 308 308 308 308 308 309 309 309 309 308 308 306 305 306 307 306 307 309 309 309 308 307 307 306 306 306 305 307 306 305 305 304 303 303 310 315 311 307 307 304 306 307 303 303 305 304 301 299 302 303 300 298 297 301 302 300 301 300 298 299 298 299 299 300 300
312 311 311 311 311 310 310 310 310 311 312 312 311 311 311 311 311 311 312 312 312 311 311 310 309 308 308 309 308 308 309 309 308 306 305 306 307 307 307 308 309 310 309 308 308 307 307 307 304 304 310 308 305 307 306 303 304 312 317 310 307 306 302 304 308 304 303 305 304 300 298 301 302 300 299 300 303 301 301 303 301 301 302 299 298 299 299 299
312 312 311 311 311 310 311 310 311 312 312 312 311 311 311 311 312 312 312 312 311 311 312 311 310 309 309 309 309 310 310 309 308 306 306 307 307 307 308 309 310 310 310 309 308 307 307 307 304 306 311 308 304 306 306 305 306 307 312 314 307 304 302 300 304 304 302 303 303 301 298 300 300 299 299 300 302 301 302 304 302 302 305 303 299 298 299 298
312 312 311 311 311 310 311 311 311 312 312 311 311 311 311 311 312 312 313 312 311 311 311 311 311 310 310 310 311 312 312 310 307 305 306 307 307 307 308 309 309 310 310 309 308 307 307 305 304 306 310 310 307 307 305 304 307 305 307 310 304 303 303 299 301 301 299 301 303 301 300 301 299 298 300 300 301 304 305 304 302 302 306 306 299 296 298 297
312 311 310 310 310 310 310 310 311 311 311 311 311 311 311 312 312 312 313 312 311 312 311 311 311 311 311 312 313 313 315 312 306 305 307 307 307 308 308 308 309 309 309 308 307 306 307 305 306 311 310 309 310 310 306 300 302 304 301 302 301 302 302 299 299 300 298 299 303 302 301 300 298 299 302 301 301 305 307 304 302 301 301 303 299 297 297 297
312 311 310 310 310 310 310 310 311 311 311 311 311 311 312 312 312 314 313 312 312 312 312 311 310 311 311 312 312 312 315 310 305 306 307 307 307 307 308 308 308 308 308 308 307 306 307 306 310 316 310 306 305 305 304 299 300 303 301 299 301 300 301 300 299 298 299 302 303 301 300 299 299 301 300 300 301 303 303 299 297 297 297 297 298 298 297 296
312 310 310 310 310 310 310 310 310 311 311 311 312 312 312 312 313 314 314 313 313 312 313 312 311 310 309 310 308 310 312 307 304 306 307 306 307 307 308 308 308 308 308 307 307 305 306 308 309 310 308 306 303 301 301 299 300 303 302 300 299 300 300 300 299 298 300 304 301 298 299 299 301 301 298 300 301 301 298 294 294 296 295 295 296 297 296 297
311 310 310 310 310 310 310 310 310 311 311 311 311 311 312 312 313 314 314 313 312 313 312 314 313 310 310 309 309 311 310 306 305 306 306 307 307 308 308 308 308 308 307 306 306 304 305 309 308 306 307 305 303 303 301 301 303 302 302 301 300 301 300 299 301 302 303 302 299 299 302 301 301 299 298 301 302 301 297 294 295 294 294 295 295 296 296 296
310 309 310 310 310 310 310 309 310 311 311 311 311 311 312 312 313 314 315 313 313 313 312 314 312 309 310 307 310 312 307 305 306 306 306 306 307 307 308 308 308 308 307 306 305 304 306 307 306 306 306 303 302 303 302 303 304 302 301 301 301 301 300 300 302 304 304 302 300 302 304 303 300 298 301 304 302 299 296 295 294 294 298 298 293 294 296 295
310 309 310 310 310 310 309 309 310 311 311 311 311 311 311 312 313 313 314 314 313 313 313 314 310 309 308 308 313 311 305 306 306 306 306 306 307 307 308 307 307 308 306 306 304 303 306 306 302 302 304 303 301 302 302 304 303 301 302 302 302 302 301 302 302 303 303 302 302 303 304 304 300 300 304 306 302 297 297 299 297 298 304 302 295 293 296 295
309 309 310 310 310 310 309 309 310 311 311 311 310 310 310 311 312 313 312 312 312 312 312 311 309 309 307 308 314 310 305 306 307 306 306 305 307 307 307 307 307 307 306 304 302 302 305 304 299 301 305 303 301 301 300 300 301 300 303 303 303 303 301 302 303 303 303 301 301 301 302 303 300 301 305 304 302 298 300 303 301 302 305 303 296 292 294 295
307 308 309 310 310 310 309 309 310 311 311 310 310 310 310 311 311 311 310 309 309 309 308 308 308 308 308 307 308 307 305 306 306 306 306 305 305 305 305 306 306 306 306 303 301 303 304 302 301 305 306 302 301 303 300 299 301 301 303 304 305 307 303 301 302 303 302 301 300 301 303 306 302 303 306 303 301 300 300 302 303 304 303 302 297 292 293 295
305 306 308 309 310 309 309 309 310 311 311 310 309 309 310 310 310 309 308 308 308 308 308 308 308 308 310 309 305 305 306 306 306 306 306 305 304 304 305 306 306 306 306 305 302 302 302 302 303 303 302 302 302 300 300 301 302 302 303 305 309 311 305 300 301 302 302 301 301 301 306 312 309 305 304 300 299 299 300 302 302 303 302 301 299 296 294 293
305 306 307 308 309 309 308 308 310 310 310 309 309 309 309 310 310 308 308 308 308 308 308 308 308 307 310 309 305 305 306 306 306 307 307 306 305 305 304 305 305 304 304 303 303 302 302 303 303 301 299 301 301 300 304 305 305 304 302 307 312 309 307 303 302 304 301 301 301 302 307 313 312 311 304 298 298 299 302 303 301 301 301 300 299 299 296 293
305 305 306 307 307 307 307 308 309 309 309 309 309 309 309 310 309 308 309 308 308 308 307 308 308 309 311 307 304 306 307 306 307 306 307 308 307 306 306 306 305 305 305 304 303 303 303 303 303 302 300 301 301 304 310 309 311 309 303 313 313 307 311 308 303 305 303 301 301 302 308 310 309 308 301 296 296 298 302 303 301 301 300 299 298 298 297 295
305 306 306 306 306 307 307 308 308 308 308 309 309 309 310 310 310 310 309 308 309 308 307 308 306 311 314 307 304 306 306 306 307 306 307 309 308 308 308 308 308 307 306 306 306 305 304 305 304 301 302 304 305 310 314 313 318 313 307 314 313 308 313 308 303 303 303 303 302 302 306 309 307 305 300 297 297 297 300 302 300 300 299 298 297 296 297 295
305 306 306 306 306 306 308 308 308 308 308 308 309 309 309 309 309 309 309 309 309 307 308 308 305 310 311 306 306 306 306 306 306 306 308 308 309 309 308 309 310 308 309 308 307 307 306 308 306 303 308 308 308 318 318 311 316 313 308 311 309 307 308 307 305 302 301 303 303 302 303 306 306 304 302 300 299 299 300 302 301 299 298 297 296 296 296 296
305 306 306 306 306 307 308 308 307 307 308 309 309 309 309 310 309 310 310 308 308 309 308 308 309 310 307 306 307 306 306 306 306 307 307 309 309 309 309 310 308 306 315 316 310 311 309 309 310 310 314 314 314 323 318 309 313 314 312 311 307 305 304 307 307 302 300 303 303 303 303 304 304 301 302 301 299 300 300 300 299 298 298 297 297 297 296 296
305 306 306 306 306 308 308 307 307 307 308 309 309 309 309 308 310 311 308 308 313 313 309 309 310 310 307 307 306 306 307 305 306 306 307 309 308 309 308 308 309 310 322 323 312 314 314 313 316 313 313 313 310 311 310 309 312 314 316 314 310 307 307 307 306 301 299 302 304 304 305 305 303 302 303 302 298 298 298 298 297 298 298 297 297 297 296 296
306 305 305 306 307 308 307 307 308 308 309 309 309 309 309 315 322 318 310 310 312 308 308 309 308 307 309 309 307 308 308 304 305 306 307 308 307 309 306 310 321 319 320 323 311 309 312 317 315 307 305 305 302 302 304 306 307 311 315 316 310 308 310 308 303 301 299 304 308 304 304 305 304 304 304 302 299 299 300 299 298 298 298 298 298 298 297 297
306 305 306 307 307 307 307 308 308 309 309 309 310 309 312 321 324 317 311 309 306 303 306 308 305 307 308 307 307 306 308 306 304 305 307 307 307 308 306 315 331 322 314 315 312 310 319 321 308 300 301 300 301 301 303 307 310 312 314 315 312 309 311 308 302 303 300 304 309 304 305 307 305 306 304 301 302 304 304 303 302 300 298 298 298 298 298 297
305 305 306 307 307 307 307 308 308 309 310 310 310 310 309 314 313 309 310 310 305 302 306 305 305 309 306 304 306 304 309 311 306 307 307 308 311 310 313 324 330 319 315 315 313 317 323 312 301 299 301 300 303 303 303 309 314 317 314 313 314 311 311 308 303 304 303 304 310 307 307 309 306 305 305 303 304 306 304 303 303 302 300 300 299 299 299 299
305 306 306 307 307 306 307 309 308 309 310 309 310 310 307 308 307 306 309 311 307 304 308 309 309 313 309 307 306 305 312 310 307 311 306 309 315 313 321 331 327 320 321 324 318 313 310 303 299 300 301 303 307 305 305 310 313 316 315 313 315 311 310 311 306 306 307 304 307 308 307 308 307 308 310 305 301 303 303 302 302 300 301 302 301 300 300 302
306 305 306 307 306 307 308 308 308 309 309 309 310 309 308 307 306 307 308 309 310 306 307 307 306 310 312 308 305 307 313 307 307 312 306 310 315 312 317 320 322 323 315 318 325 315 305 300 299 303 304 306 308 309 311 312 313 316 315 311 313 310 307 310 309 309 310 304 303 308 311 317 321 317 315 309 301 303 305 305 305 303 301 300 301 301 300 301
306 306 306 307 306 307 307 307 309 308 308 310 309 308 307 307 307 308 311 310 310 308 306 305 305 306 307 306 305 305 309 308 307 307 304 308 311 311 311 307 313 318 307 308 319 315 305 298 298 305 310 310 309 311 311 310 314 318 313 307 306 307 307 312 314 310 311 308 304 307 314 329 334 326 321 317 313 311 308 307 308 308 305 302 305 305 302 302
306 306 306 306 307 307 307 309 308 307 310 309 308 308 307 310 309 307 316 319 312 308 307 307 306 307 306 305 306 304 305 306 304 303 305 307 306 307 310 307 306 308 308 307 308 306 303 299 300 309 315 315 313 310 306 307 317 313 308 305 305 307 309 314 316 310 311 310 305 305 313 322 326 325 324 321 321 318 311 311 312 311 311 309 310 308 306 307
306 306 306 307 306 307 308 309 308 308 311 309 308 309 306 310 309 305 316 317 307 307 309 308 307 308 308 304 304 306 303 304 303 304 305 305 305 305 309 312 306 306 307 307 304 303 302 303 306 312 317 316 313 309 304 305 314 309 306 305 307 308 310 313 312 310 312 311 308 311 313 313 316 320 321 314 316 318 314 313 313 312 314 314 314 312 311 311
306 306 306 307 306 307 308 308 308 308 309 309 308 309 308 309 308 313 320 309 303 310 310 308 308 307 307 303 304 309 307 305 305 304 303 303 304 308 314 313 309 310 305 306 302 304 300 305 307 310 315 314 309 306 303 304 309 308 305 304 305 307 310 310 310 312 312 309 315 318 310 311 321 325 322 313 311 315 316 314 314 315 315 316 317 316 317 316
306 306 306 307 306 307 309 308 309 308 308 310 308 308 309 307 308 315 318 305 304 311 307 306 308 305 307 306 306 311 309 306 308 306 304 304 302 306 313 309 310 313 304 306 310 305 300 303 303 306 310 309 305 303 303 307 309 305 302 304 306 308 310 309 309 313 314 314 320 318 308 311 321 327 325 314 312 317 316 314 313 314 315 316 318 317 316 318
306 307 306 307 307 306 309 309 308 308 309 309 308 310 308 312 323 320 308 305 307 308 306 307 309 306 306 305 305 310 309 308 313 309 305 307 305 306 305 302 311 318 310 310 312 305 301 299 299 304 307 304 303 303 302 303 304 303 305 309 310 312 311 311 315 315 314 324 325 313 309 310 314 326 328 316 315 320 315 314 315 313 315 315 316 318 315 313
306 307 306 307 307 308 310 309 309 309 309 309 308 309 307 314 330 322 304 306 310 309 307 306 310 312 309 307 309 312 309 309 311 312 311 311 312 316 310 304 309 319 327 324 308 301 302 302 301 301 301 301 303 305 302 300 301 304 313 317 312 317 314 314 327 320 313 330 324 310 309 310 312 326 333 323 319 318 314 315 318 315 316 315 313 315 314 310
305 307 306 307 308 309 310 309 310 309 308 310 307 311 318 313 315 317 307 307 309 310 309 306 310 315 313 311 314 314 309 307 309 312 314 312 314 314 311 310 306 308 325 324 307 305 306 303 302 299 300 300 303 306 303 302 305 307 318 324 317 323 321 320 332 322 317 327 314 307 310 310 313 319 322 322 318 317 314 313 316 316 315 314 313 312 312 309
305 307 306 307 309 309 310 310 310 309 309 310 309 318 330 319 312 316 313 310 308 306 308 309 309 311 312 310 310 309 306 304 307 309 307 307 310 305 303 307 305 303 315 313 306 312 310 304 303 302 302 298 300 306 306 308 311 310 318 323 319 322 319 322 329 316 314 321 310 305 309 313 319 316 315 319 315 313 313 309 310 312 312 312 311 309 309 309
306 307 305 308 310 308 310 310 308 310 307 310 318 320 318 314 313 313 313 312 309 307 308 309 309 309 309 308 306 306 306 304 306 311 310 308 308 306 306 306 302 310 324 314 305 310 310 307 305 302 302 299 300 303 305 308 311 311 312 314 318 322 312 316 326 316 313 321 314 307 310 321 323 312 313 317 314 312 313 312 308 306 309 310 309 307 306 309
306 306 305 308 309 308 309 308 308 309 307 314 325 320 313 314 313 313 319 315 310 311 308 307 312 314 310 309 308 305 306 305 305 309 311 309 311 313 312 310 307 311 317 313 307 306 305 304 304 300 300 300 303 301 299 305 308 307 307 309 314 319 316 315 316 314 312 317 321 315 315 323 319 311 314 313 314 314 313 314 312 309 309 307 309 309 307 308
306 305 306 307 307 308 307 307 308 307 308 315 317 315 321 322 312 311 316 313 312 313 308 309 316 314 310 310 310 307 305 305 305 307 308 308 311 311 310 314 312 309 310 314 315 308 305 306 303 301 301 298 301 301 298 304 305 303 308 313 309 306 315 318 309 307 309 313 321 318 315 318 314 315 322 320 319 317 313 313 314 313 311 308 310 309 306 306
306 306 307 306 307 308 306 308 308 304 310 316 314 317 323 318 309 312 312 308 311 313 312 314 311 307 310 310 309 310 308 305 304 307 308 307 308 310 311 312 307 306 308 310 311 309 308 309 304 300 303 299 297 299 301 301 302 304 309 312 306 302 310 314 310 315 317 316 321 318 316 318 313 315 324 327 325 322 320 317 313 313 312 312 312 308 305 305
306 307 307 305 306 307 306 307 305 307 315 316 314 319 317 309 306 312 313 307 307 313 316 317 310 305 310 311 311 309 306 308 310 310 309 306 307 311 312 311 306 305 306 304 305 306 305 311 311 299 301 302 296 299 305 302 298 303 306 303 305 309 313 311 312 318 316 314 320 322 318 315 313 318 324 324 325 325 323 317 313 314 314 313 313 308 306 306
306 308 308 306 306 307 307 307 305 311 318 315 316 316 309 308 308 308 310 307 308 313 313 313 310 306 308 311 314 309 305 311 315 311 307 305 306 307 307 309 307 305 306 305 305 308 305 307 315 304 299 301 300 302 310 308 300 300 303 303 305 312 315 313 313 315 315 317 320 322 323 316 315 327 329 321 322 323 322 319 316 316 312 310 310 308 307 307
305 310 310 305 306 307 306 307 308 312 313 314 321 317 307 308 310 305 305 307 308 309 310 315 313 310 310 308 310 309 307 312 315 311 307 304 305 306 304 308 309 307 306 303 304 313 307 301 313 311 299 302 307 306 310 313 309 306 308 310 308 308 309 309 309 310 317 324 320 316 321 317 314 323 326 319 319 317 317 318 316 314 311 308 308 307 307 307
305 311 311 305 305 307 306 310 313 313 313 311 313 314 310 310 311 308 305 304 305 305 309 317 316 314 315 310 309 309 308 312 313 311 309 305 306 307 304 305 311 309 307 306 307 313 307 304 316 316 308 312 315 304 299 303 306 309 313 315 313 312 313 312 311 311 311 315 318 317 318 315 315 321 324 318 317 316 315 315 314 313 311 309 308 307 306 307
306 312 310 304 305 306 309 315 311 306 315 314 310 311 310 309 310 310 306 305 306 306 307 312 313 315 317 314 312 310 308 312 311 309 310 307 306 307 303 299 306 308 309 311 310 307 307 310 313 314 317 314 304 297 296 297 297 300 304 307 309 314 318 317 317 318 310 306 311 316 316 314 314 319 324 321 317 315 313 311 313 314 310 307 307 306 306 305
314 314 306 303 306 307 310 314 307 306 313 310 305 307 307 308 311 309 307 306 307 308 310 311 310 311 313 311 310 310 309 310 310 310 312 311 307 304 299 296 301 306 307 310 309 304 306 312 310 314 325 313 299 297 296 294 296 302 304 303 307 312 318 320 319 318 314 310 312 315 315 316 319 320 321 321 317 315 314 312 315 317 313 307 305 305 305 304
318 311 306 305 305 306 311 315 313 314 314 306 305 307 305 307 310 309 310 310 308 308 313 314 310 308 309 308 309 310 308 306 308 308 308 310 307 299 296 297 300 304 306 308 309 304 305 313 313 312 320 322 315 310 304 300 302 307 308 305 305 309 312 314 312 309 310 315 317 318 316 316 322 325 321 319 320 320 320 316 314 317 318 313 308 304 303 303
311 307 309 309 306 307 312 315 320 324 316 309 311 311 308 307 307 307 310 310 308 308 311 311 308 308 309 307 308 308 305 305 308 307 305 308 305 298 297 299 300 305 306 302 302 304 304 311 316 316 315 314 318 319 314 313 310 308 307 305 304 306 308 311 312 310 312 315 314 316 317 312 314 320 315 314 316 314 313 315 314 314 315 315 312 307 304 303
310 310 311 310 310 311 309 307 316 323 319 314 311 310 312 312 307 304 307 308 307 307 308 308 307 309 309 307 310 310 305 304 306 306 308 310 306 300 298 298 301 304 304 300 300 305 308 309 312 319 319 313 313 317 313 312 314 312 310 308 305 304 306 311 316 315 315 314 312 313 314 311 310 312 309 309 311 310 311 311 311 312 313 313 312 307 304 303
309 313 312 309 311 313 309 307 314 319 318 315 309 309 312 314 309 305 305 305 305 306 308 307 307 310 310 309 312 312 307 305 305 306 310 309 304 300 296 297 301 301 301 301 301 305 311 311 310 311 313 311 309 310 307 307 312 314 312 312 309 305 304 309 312 313 314 315 313 311 311 310 310 309 309 309 309 310 311 310 309 311 313 314 313 311 310 307
306 312 313 308 312 315 310 310 314 316 314 311 309 310 311 313 312 311 307 304 303 305 308 308 309 312 314 313 313 311 308 307 308 308 309 307 305 303 300 298 299 299 300 301 300 307 314 313 308 307 311 314 308 305 307 308 310 311 312 313 311 306 305 308 309 309 311 313 312 311 313 313 310 309 309 309 308 309 309 308 308 309 310 311 311 312 313 311
304 309 306 302 311 317 312 311 313 314 313 310 310 311 311 313 314 311 308 306 307 307 307 310 314 314 314 314 313 314 312 310 311 312 310 308 306 305 307 306 301 297 300 302 301 305 312 314 310 305 309 317 311 305 304 306 308 310 310 309 309 306 306 307 308 307 308 310 311 311 311 310 308 308 308 308 307 308 307 307 307 307 307 308 308 308 309 309
306 310 308 305 312 314 309 309 312 313 312 309 310 310 310 314 314 309 307 311 314 310 304 310 318 315 312 313 314 318 317 314 312 313 312 311 309 307 311 314 309 299 299 303 302 300 304 314 312 307 312 319 311 304 303 303 306 310 310 307 306 306 306 304 304 304 305 307 308 307 308 307 306 306 307 306 307 307 307 308 306 306 306 306 307 307 306 307
305 306 306 308 312 309 308 309 311 314 311 308 310 310 309 312 313 310 309 310 315 315 309 311 318 314 308 308 311 315 317 314 312 312 314 315 312 311 310 310 312 308 303 302 304 302 303 309 308 306 314 321 310 306 308 306 304 308 312 310 305 305 307 305 303 303 305 307 307 306 307 307 306 307 308 308 309 309 309 309 307 306 306 307 308 307 306 306
304 302 303 309 311 308 309 311 310 312 312 308 309 309 309 311 310 310 309 308 309 312 310 310 316 316 312 310 311 312 315 315 312 309 308 308 309 309 307 306 309 311 306 302 304 304 305 312 313 308 313 319 310 306 311 311 310 316 321 318 310 306 306 305 304 304 304 305 307 307 308 308 308 309 309 308 309 309 309 308 307 306 306 306 307 306 306 305
Wind_Speed
4 5 5 7 8 8 8 7 8 8 9 11 10 9 7 7 8 9 10 9 9 8 9 10 12 14 16 18 19 20 19 21 26 32 25 18 24 22 19 13 6 7 12 12 12 11 13 13 11 6 6 9 7 3 5 5 4 5 4 5 4 3 3 5 7 6 4 3 4 3 1 5 1 2 1 1 5 5 3 3 3 4 4 6 7 9 9 5
4 5 6 7 8 9 8 8 8 9 10 10 9 7 6 6 6 7 7 7 7 7 6 6 6 10 14 17 18 19 20 25 30 30 22 22 24 18 13 8 6 10 11 8 5 6 8 6 7 8 7 5 5 5 4 3 6 4 4 5 2 4 2 4 6 6 3 4 5 3 1 3 2 2 1 1 5 6 4 5 5 6 7 7 7 7 7 7
3 5 6 8 8 9 8 8 8 9 9 9 7 6 5 5 5 5 5 5 6 6 4 3 3 6 10 12 12 10 11 22 23 17 22 25 20 15 11 7 7 9 7 4 5 9 10 6 8 9 7 5 4 5 5 5 4 2 4 5 2 5 2 2 5 5 4 5 6 2 1 1 1 2 1 1 4 4 2 5 3 5 9 8 7 5 5 12
3 5 7 8 9 9 9 8 8 9 8 7 6 4 4 4 4 4 4 4 6 7 5 3 1 4 6 6 3 4 5 13 10 14 23 23 18 14 9 7 5 6 6 6 9 11 11 10 13 10 7 5 5 4 6 5 2 3 4 3 3 4 3 1 5 4 4 4 6 4 1 2 0 1 2 4 3 5 5 7 8 8 9 8 7 6 8 13
3 6 7 8 9 8 8 8 8 9 8 6 5 4 4 4 3 3 2 3 6 7 7 7 2 4 5 6 8 11 6 6 5 18 24 21 17 12 7 8 6 7 8 8 7 6 6 9 12 9 7 5 7 6 5 5 2 5 2 1 3 4 4 1 3 4 4 3 4 3 3 0 1 0 3 6 3 5 5 6 10 11 11 9 7 9 11 13
4 6 8 8 8 8 8 8 8 8 7 5 4 3 3 3 3 2 1 1 4 6 7 7 6 2 2 2 3 3 4 4 9 22 24 20 16 9 5 6 7 8 7 5 2 4 6 9 10 6 5 5 6 6 3 6 3 5 1 2 2 3 4 1 1 3 4 5 5 3 2 1 3 3 1 6 8 9 7 6 7 10 12 11 8 11 13 15
6 6 7 8 8 8 7 7 7 7 6 5 3 3 3 3 3 1 1 1 1 5 6 4 6 7 8 9 12 12 9 2 16 24 22 20 13 7 4 5 8 5 2 3 5 6 6 10 10 5 6 5 4 5 3 6 7 7 3 2 4 3 2 1 1 2 2 5 3 3 2 3 2 3 2 3 11 11 12 10 6 8 9 9 9 13 16 18
6 6 6 7 7 8 7 6 6 6 5 4 3 2 2 2 2 1 3 2 2 5 7 4 3 1 1 3 10 11 6 6 20 23 21 18 9 5 3 2 5 2 2 7 7 6 5 9 8 5 6 4 3 3 2 6 9 8 4 1 3 3 3 3 2 4 4 4 1 3 4 2 3 1 2 9 13 10 13 12 9 7 5 8 11 14 17 18
5 5 5 6 7 7 6 5 6 6 5 4 3 2 2 2 2 2 3 4 5 6 6 4 3 2 3 2 9 7 4 10 18 20 20 15 8 4 2 2 2 1 5 6 3 4 4 3 4 6 7 3 4 3 3 5 4 3 3 2 3 2 4 2 3 5 4 2 2 4 4 5 2 1 4 12 13 8 9 7 6 4 5 7 10 14 17 17
3 3 3 5 6 6 5 5 5 5 4 3 2 1 1 2 1 2 3 4 6 6 5 3 2 1 1 2 9 6 5 11 15 17 19 14 7 3 3 6 4 2 5 6 3 2 4 8 9 12 12 5 4 4 4 4 4 4 6 6 5 1 3 2 3 4 2 1 3 3 4 6 3 2 4 9 7 3 5 6 4 5 6 8 9 14 16 17
3 2 3 4 6 5 3 4 4 4 3 1 1 1 1 1 2 1 2 4 5 5 4 4 2 2 7 10 9 5 6 12 14 15 18 16 12 8 8 7 5 8 14 14 11 10 17 21 19 14 7 3 5 6 5 5 6 5 6 6 6 4 1 3 4 4 3 1 2 4 3 5 2 1 8 10 5 1 6 8 5 5 8 8 8 11 13 17
2 2 2 4 5 4 3 3 3 4 2 1 1 1 1 2 3 1 3 6 7 8 8 10 7 7 19 18 6 3 8 12 13 13 16 21 22 19 14 10 9 14 20 19 14 17 20 16 14 10 3 5 5 4 4 3 5 4 4 5 6 7 4 4 3 3 2 1 1 2 3 6 1 7 13 7 5 2 4 7 7 7 8 7 6 8 10 17
3 2 3 4 4 3 2 2 3 3 2 1 0 1 1 2 3 3 5 6 6 7 5 5 3 3 13 9 3 6 9 11 11 10 16 20 23 23 19 15 13 11 15 18 13 11 10 11 21 16 4 8 4 2 7 3 4 2 3 6 3 7 4 4 3 2 2 2 5 2 3 7 6 12 11 5 3 2 3 8 8 7 7 6 6 5 9 15
3 2 3 4 4 4 3 3 3 3 1 1 1 0 1 2 3 3 2 3 3 4 4 5 4 6 10 3 2 8 8 9 11 11 15 16 18 22 23 22 21 20 21 24 21 17 16 23 30 17 3 6 5 4 6 5 4 2 2 2 3 3 2 6 3 1 3 2 5 5 1 7 9 11 8 6 2 5 6 9 8 7 7 6 6 5 7 13
3 2 3 4 4 4 4 4 3 2 2 2 2 2 1 1 2 2 1 2 4 4 4 6 6 9 10 2 2 7 7 10 14 15 15 13 14 16 18 22 23 24 24 25 23 19 18 23 21 9 2 4 5 6 5 4 4 3 1 2 4 2 4 7 2 1 3 1 6 6 3 7 9 11 7 5 1 5 8 9 8 8 8 7 6 6 6 12
3 2 4 4 4 4 4 4 3 3 4 4 5 3 2 2 2 2 2 1 2 2 3 5 6 10 7 1 2 6 8 10 13 14 12 12 12 9 10 14 14 15 18 18 17 15 18 20 11 3 4 4 5 6 4 4 5 4 2 1 2 1 3 4 2 2 3 2 4 3 2 5 6 7 6 3 1 3 7 10 9 8 9 7 6 6 6 9
3 2 4 5 5 5 5 4 4 5 5 6 6 4 3 3 2 2 2 3 5 4 7 8 9 11 6 2 2 4 6 8 11 11 10 11 12 8 5 6 6 6 10 13 13 12 14 12 3 1 5 4 3 5 4 4 4 4 4 1 2 1 1 3 2 3 5 3 2 1 2 9 9 8 10 6 3 5 8 11 11 8 7 6 6 6 6 7
3 2 4 6 6 6 5 5 6 6 7 7 8 7 7 8 6 5 5 5 5 6 9 8 8 7 3 3 2 4 7 9 10 11 10 8 9 9 7 5 4 5 4 9 12 10 7 5 3 3 4 5 5 5 3 1 3 2 1 1 1 1 2 3 3 1 2 2 2 1 4 13 14 12 12 8 2 7 11 11 9 8 7 6 6 6 7 7
3 3 6 7 7 7 6 7 7 8 9 9 10 10 9 9 8 10 17 14 5 3 4 4 5 2 2 2 3 6 6 7 8 11 12 9 7 7 8 9 6 5 4 4 7 7 3 4 5 4 3 4 3 2 4 4 4 5 4 4 3 1 3 4 4 3 2 1 4 6 6 12 13 13 13 8 1 6 10 8 7 7 6 7 6 6 7 7
3 5 9 9 8 8 7 8 8 9 10 9 9 7 5 4 4 6 16 17 6 2 1 1 1 2 0 2 6 7 4 3 6 11 16 14 8 3 6 10 8 8 6 1 4 4 3 6 5 2 0 2 2 1 4 4 4 5 4 4 3 2 4 4 2 5 1 1 6 6 6 11 12 15 14 7 1 5 9 9 9 9 7 7 7 8 9 8
5 7 10 10 10 9 9 10 8 7 6 6 5 3 2 3 3 1 3 7 2 2 3 0 1 2 2 2 7 7 2 2 6 14 19 14 7 2 5 7 7 6 4 2 3 4 5 6 2 1 2 1 0 2 4 4 5 5 4 3 2 2 4 3 0 4 2 1 4 2 4 12 12 14 13 4 1 7 10 9 10 10 8 7 7 9 9 8
6 8 10 11 11 11 12 11 7 4 3 3 2 3 2 3 5 6 6 4 2 2 3 2 2 2 1 2 8 8 4 4 6 13 19 15 8 2 3 6 7 2 4 3 1 5 7 4 1 2 1 2 4 3 4 5 5 4 3 2 2 2 4 4 2 4 3 1 4 4 6 12 13 12 11 7 7 7 7 8 9 8 8 8 8 9 9 8
8 10 10 12 12 12 13 10 5 3 2 2 1 3 5 8 11 11 9 5 2 3 3 4 3 3 4 3 8 8 6 5 3 9 19 16 6 3 3 6 5 2 5 6 4 3 3 1 1 1 1 2 4 4 5 5 4 3 3 2 3 3 3 3 3 4 2 1 3 5 6 10 10 8 9 7 6 6 5 7 8 6 8 9 7 7 7 8
10 10 10 11 11 12 13 9 4 2 2 2 3 6 11 14 13 9 7 4 1 2 2 2 1 1 3 3 8 6 4 3 1 6 17 12 2 2 4 5 4 5 4 3 7 7 1 2 1 4 3 2 2 4 5 5 4 2 2 3 1 2 2 3 4 5 3 1 1 4 6 7 5 5 7 3 1 5 4 4 8 7 8 8 6 7 8 8
11 11 10 11 11 12 13 7 2 2 3 5 7 11 14 12 7 4 5 3 2 2 2 1 1 1 2 4 8 3 3 2 1 4 11 8 2 1 3 2 4 4 1 2 8 7 2 1 0 3 4 4 4 3 3 2 2 4 1 1 1 2 1 4 5 5 4 4 2 4 5 5 5 4 8 4 5 6 4 3 8 8 6 6 7 9 8 8
12 12 10 11 11 12 11 5 3 5 4 5 11 14 10 6 3 3 4 5 2 3 2 1 1 2 2 6 8 1 3 2 3 3 7 8 2 3 3 2 3 3 4 3 5 3 1 2 2 3 4 6 5 2 1 3 3 1 1 1 2 3 2 3 5 4 1 3 2 4 2 5 7 6 8 5 6 8 6 5 8 8 6 6 7 8 7 7
13 12 10 10 11 12 8 4 5 5 3 6 13 12 5 4 3 3 5 5 3 2 1 1 1 3 2 4 6 2 2 3 2 3 6 7 4 2 4 2 2 3 2 3 1 1 1 3 4 4 6 6 4 2 1 3 3 2 1 2 3 4 3 3 4 2 2 3 3 4 3 2 6 7 7 4 4 9 9 8 9 7 7 7 7 8 8 8
14 12 10 10 11 11 5 3 8 5 4 11 13 7 3 3 2 3 7 4 2 0 2 1 1 3 2 2 5 4 1 2 2 2 5 7 5 3 4 1 4 3 0 1 1 2 1 2 2 4 6 4 0 1 0 2 1 3 2 2 2 3 3 4 4 1 1 3 4 5 3 1 6 7 5 4 3 8 9 10 10 8 8 8 8 8 8 7
15 12 10 9 11 11 4 3 6 4 9 15 10 4 3 2 2 5 6 2 1 1 1 1 1 2 4 3 6 4 1 2 2 4 6 6 6 6 5 2 7 7 3 3 3 2 1 1 2 3 4 1 2 1 1 2 1 2 2 2 3 4 3 4 3 0 2 3 4 5 4 1 5 7 5 3 2 7 9 9 9 8 8 7 7 7 7 6
16 13 9 7 9 10 6 3 4 7 13 13 6 4 3 2 4 7 2 3 0 0 1 1 1 2 4 4 4 5 3 2 3 4 4 2 6 8 5 3 6 7 4 6 5 1 1 2 2 3 2 2 3 1 1 1 2 1 2 1 3 4 3 3 2 2 3 3 6 5 3 1 3 6 4 3 4 7 7 7 7 7 8 8 8 7 7 6
17 13 8 6 7 8 6 4 5 11 15 10 4 4 3 4 5 6 3 4 1 0 1 2 2 3 5 4 1 4 4 4 6 4 3 3 6 7 4 2 3 5 5 6 5 2 2 3 1 1 1 2 4 2 0 1 2 1 1 2 4 4 3 3 4 4 3 3 6 5 2 1 2 6 5 5 7 6 6 7 8 9 9 9 8 7 7 6
17 13 8 5 6 8 6 4 7 16 16 8 4 3 5 3 1 3 3 3 1 1 0 0 2 3 3 2 3 4 2 2 4 4 2 2 3 3 3 2 3 3 4 2 2 2 1 1 2 1 1 2 4 2 2 3 3 3 3 4 4 4 4 3 3 2 2 4 3 2 2 1 6 9 9 10 11 9 9 9 9 9 10 9 8 8 7 6
17 13 8 5 6 7 5 4 10 18 16 7 3 5 7 4 3 4 2 2 0 1 1 2 1 2 2 2 2 3 1 1 3 3 1 1 3 2 1 3 3 2 1 3 1 3 3 3 2 1 1 2 3 2 1 2 2 3 2 3 3 2 3 3 4 3 4 4 2 2 2 3 5 7 9 12 12 8 7 8 8 7 8 8 7 6 6 6
16 12 8 5 5 4 4 7 13 18 14 6 4 6 6 3 5 3 2 3 1 2 2 2 2 3 3 2 1 2 1 1 3 3 2 2 3 1 2 2 0 3 4 2 0 2 1 3 2 1 1 2 1 2 2 1 2 1 2 4 3 3 2 3 4 2 4 4 3 3 1 2 3 4 6 9 9 7 6 7 6 7 7 6 6 5 6 7
16 12 7 5 5 4 7 14 16 15 12 6 6 5 4 4 3 2 3 4 2 1 2 2 3 5 4 3 2 1 2 0 2 3 3 2 2 2 2 3 2 3 5 2 2 2 1 4 3 2 1 1 1 2 1 2 2 1 2 3 1 3 3 1 3 4 2 3 4 3 3 5 4 8 8 4 7 8 6 6 5 7 7 4 5 6 7 8
15 12 8 6 5 6 13 17 14 10 9 7 5 2 5 4 2 3 4 3 4 5 4 2 4 5 2 3 3 3 0 0 2 2 2 1 3 4 3 4 4 3 5 4 3 2 1 4 3 3 2 1 1 2 1 1 1 0 2 1 2 3 5 3 1 1 3 1 4 1 4 5 4 8 9 6 7 8 6 5 6 7 6 4 6 7 7 8
15 11 7 5 5 8 14 15 10 7 6 7 4 5 5 3 3 4 3 3 3 5 7 3 1 2 2 2 2 3 1 1 1 1 1 2 2 4 3 2 3 3 4 4 3 3 2 3 4 1 0 1 1 1 2 1 1 2 2 3 2 2 4 4 0 4 4 1 4 2 4 6 3 5 8 9 8 8 7 6 6 6 5 6 8 8 8 9
14 10 6 4 5 8 12 13 9 5 6 5 3 4 3 2 2 3 3 3 3 4 6 4 2 1 3 4 3 3 2 2 2 0 2 1 3 4 4 2 1 0 2 2 1 0 2 2 5 1 1 2 2 1 3 3 1 2 2 2 1 2 1 2 1 1 2 3 5 5 6 4 3 4 6 7 7 8 8 6 5 8 8 8 9 9 9 8
13 8 2 4 6 7 10 12 8 5 6 3 4 4 2 2 2 1 2 1 3 5 4 4 2 2 3 5 3 3 3 4 3 2 2 1 2 2 3 2 1 1 3 0 2 1 2 1 4 3 2 2 2 1 3 2 3 2 1 2 2 3 3 1 1 2 1 2 3 5 6 4 6 6 5 8 9 8 8 6 6 10 10 8 8 8 8 7
10 4 1 5 9 10 12 10 6 5 3 4 5 2 1 1 2 1 1 1 1 2 2 4 3 3 3 3 3 3 2 3 4 3 2 2 2 2 1 2 3 3 1 2 3 1 4 2 4 5 2 1 1 2 4 4 3 1 1 1 1 1 1 0 1 2 3 2 2 2 5 7 7 5 7 10 10 7 7 7 7 9 9 8 8 7 7 7
7 2 2 5 11 13 12 8 4 3 3 2 2 2 1 1 2 1 3 2 1 0 2 5 5 4 5 3 3 4 3 3 3 2 2 3 2 1 1 1 4 5 3 3 2 1 2 3 3 2 2 3 4 3 2 3 4 4 4 4 3 3 3 2 3 2 2 2 4 3 4 10 7 4 7 9 7 6 7 6 7 9 9 9 9 9 9 8
6 2 3 5 13 15 11 5 1 2 3 2 3 1 1 1 2 1 1 2 2 1 2 3 3 3 4 3 3 4 4 3 3 2 3 4 4 1 1 2 2 3 4 3 2 2 2 4 2 2 4 4 5 3 1 1 2 3 1 2 3 4 5 5 3 4 1 1 1 3 2 9 6 3 6 7 6 6 6 6 7 9 9 9 9 9 9 9
4 4 2 4 11 13 8 2 2 0 0 3 2 1 1 1 2 1 1 0 0 1 2 1 2 2 3 3 3 4 4 4 5 4 3 4 2 1 1 1 0 2 4 2 2 1 2 3 2 3 4 3 5 4 1 1 2 1 2 1 4 3 3 5 5 3 2 3 3 2 3 9 6 2 4 5 5 6 6 6 8 9 9 9 9 9 8 9
3 3 2 3 7 8 5 3 3 2 3 1 2 2 1 0 2 2 3 2 1 2 2 1 2 1 1 2 4 4 4 2 4 3 2 3 2 1 0 1 1 1 2 1 2 2 1 1 3 2 5 6 6 5 4 3 0 2 3 1 2 3 5 4 3 3 1 5 7 5 6 10 6 3 4 5 5 7 8 7 8 8 9 8 8 8 8 8
4 2 2 1 2 4 4 5 6 4 3 2 3 1 1 1 0 1 3 3 1 2 2 1 1 3 2 3 3 2 1 1 2 2 1 2 2 2 1 1 1 1 0 1 0 0 1 2 4 4 2 3 3 3 3 2 1 2 1 2 3 4 6 4 2 3 3 5 6 6 8 11 9 7 9 10 8 10 13 9 6 7 9 9 8 7 7 7
4 1 0 2 4 4 2 1 4 6 4 4 3 2 2 2 1 1 2 2 1 2 2 1 1 3 3 2 2 1 0 2 2 1 2 2 2 2 2 1 1 0 1 1 1 1 3 1 3 6 7 6 6 6 5 3 2 2 3 3 5 5 5 5 4 3 5 3 3 9 11 14 18 16 15 14 9 9 13 11 8 8 8 9 9 8 7 7
3 3 4 3 1 2 2 2 3 4 4 6 4 3 5 4 0 1 0 1 1 1 2 1 2 3 3 4 4 1 1 1 2 1 2 2 0 2 2 1 2 1 1 1 1 3 5 2 4 6 7 7 5 5 4 2 3 5 5 4 6 7 5 6 6 6 6 5 6 13 10 11 20 20 17 17 12 8 10 11 9 8 8 8 7 7 8 9
2 3 3 3 3 3 3 4 5 5 4 6 4 3 7 5 4 4 2 1 1 1 2 1 2 6 7 7 5 3 2 2 1 2 2 2 1 2 3 1 1 2 2 1 2 3 5 3 3 4 6 7 2 2 2 3 3 4 5 7 8 9 10 11 13 10 8 7 13 12 7 11 17 18 18 20 15 10 10 11 8 9 10 10 9 9 11 11
2 2 1 2 2 4 4 5 8 8 6 6 2 3 8 8 7 5 2 3 0 3 3 3 6 7 8 6 5 5 5 3 2 5 4 3 2 2 1 1 1 2 2 2 1 1 4 3 2 2 4 7 4 3 1 3 3 4 7 10 8 9 14 16 15 11 10 13 18 15 13 15 17 19 21 21 16 11 10 11 10 11 12 11 11 12 12 12
3 3 1 3 3 2 3 5 8 8 4 3 3 4 6 9 10 5 2 5 4 2 3 6 7 5 6 6 6 4 8 8 4 4 6 5 2 3 3 3 3 2 2 1 0 1 1 3 1 3 3 7 5 4 3 1 2 5 10 10 7 8 11 13 11 8 8 14 18 15 14 17 19 20 19 17 14 10 10 12 11 11 11 11 12 12 12 13
4 5 7 6 3 1 2 3 6 6 4 4 5 5 4 9 11 7 3 4 6 7 8 10 7 3 3 4 6 7 9 8 4 3 8 8 4 4 3 3 7 6 2 2 1 1 2 1 1 4 2 6 4 5 5 3 1 6 13 13 12 10 9 9 7 6 9 14 15 10 8 14 17 14 10 10 9 8 10 12 11 10 9 9 11 13 12 12
5 4 6 6 3 1 3 4 4 5 5 5 5 5 4 6 8 8 5 2 2 4 7 10 10 6 4 5 10 10 9 8 4 2 5 6 5 4 3 3 7 7 6 5 2 1 4 3 1 3 1 6 5 3 3 5 4 7 11 12 14 13 10 8 6 7 13 13 9 7 10 14 12 8 8 11 12 10 11 11 8 10 11 10 11 12 13 13
Wind_Direction
50 54 64 77 83 88 97 105 113 115 115 124 130 120 96 86 92 106 104 81 71 75 90 101 105 108 106 104 98 91 91 90 69 53 50 10 349 349 342 339 10 97 122 116 115 106 90 77 65 72 83 57 24 353 39 43 51 57 74 76 96 158 167 170 178 191 160 149 216 265 135 135 181 293 267 332 16 27 357 332 322 307 268 232 256 274 289 273
63 68 68 74 81 88 96 103 109 111 115 125 126 113 93 82 91 110 106 76 67 76 93 99 104 118 108 104 100 86 84 79 57 38 22 355 353 357 357 19 82 124 133 120 107 85 77 55 38 48 57 47 359 6 31 17 43 72 105 79 132 190 168 168 174 183 159 144 185 231 201 143 171 253 349 4 342 8 358 309 331 321 285 260 252 265 269 206
75 80 77 79 86 92 98 102 107 112 115 122 120 106 86 71 82 108 106 77 68 71 82 87 118 142 122 113 101 77 66 66 54 14 353 354 1 11 25 65 110 135 149 127 99 89 92 92 68 62 60 55 11 20 32 14 32 75 98 77 181 201 171 194 184 187 215 166 145 195 233 76 199 251 17 66 333 342 260 259 278 275 265 259 246 239 218 188
89 91 88 87 91 94 99 102 107 115 115 117 112 94 76 53 60 94 105 83 69 66 54 47 161 173 143 133 97 310 343 58 45 336 347 355 6 21 48 85 112 147 169 136 108 91 87 75 65 63 68 54 354 22 34 1 22 59 76 111 173 166 105 231 212 199 229 163 140 173 133 29 275 168 91 111 342 308 250 229 218 232 240 245 242 211 192 188
108 102 99 95 94 96 98 103 109 114 116 113 102 83 59 30 34 66 106 91 67 59 39 33 34 228 230 254 270 283 320 65 345 338 351 354 7 23 73 90 101 144 149 132 113 74 58 50 56 54 59 45 354 23 18 337 59 68 42 173 164 149 108 260 224 173 185 126 105 119 110 326 224 210 115 134 211 255 234 221 211 224 232 233 225 197 190 194
123 113 107 102 98 99 97 102 108 112 116 110 94 71 43 16 13 37 123 105 64 50 32 32 37 67 197 279 262 296 60 97 330 343 349 353 6 17 81 116 120 128 136 128 61 33 38 37 52 49 56 54 20 42 356 325 57 92 56 3 32 156 132 165 209 184 174 105 102 132 150 86 47 320 169 159 220 234 232 222 203 229 243 239 217 191 192 201
132 121 112 109 105 104 101 102 107 112 114 109 93 58 31 3 357 333 222 249 26 22 15 20 40 78 90 75 80 69 82 65 338 346 349 355 360 3 50 152 147 132 169 89 60 74 69 58 75 88 76 78 60 67 15 1 50 83 100 14 27 89 82 279 207 185 133 96 151 164 96 74 71 302 356 226 238 242 249 248 243 264 258 231 207 196 201 206
139 131 119 116 113 111 106 103 108 115 116 108 89 53 25 349 343 275 250 280 307 343 359 357 330 301 332 65 86 65 56 337 340 350 351 354 356 357 29 162 164 154 83 81 79 104 86 69 107 134 78 74 111 96 14 38 47 62 106 164 45 56 356 293 94 63 63 70 129 84 51 282 210 216 331 264 249 247 250 251 259 269 242 209 208 208 209 213
144 141 126 123 123 117 109 104 108 117 121 109 80 42 23 354 337 294 271 294 322 335 348 351 333 304 269 138 95 64 356 338 344 353 356 356 4 359 1 104 136 168 100 82 69 117 104 94 174 156 120 132 106 74 336 55 52 68 114 121 79 28 319 333 68 35 38 37 18 49 348 306 257 256 282 263 257 255 242 236 242 219 196 212 216 217 213 217
160 158 138 137 131 122 111 103 114 122 123 109 62 47 38 3 11 324 303 325 333 337 334 333 344 321 245 85 78 67 335 349 357 2 7 11 16 17 91 88 90 131 103 65 30 152 153 151 151 127 117 116 84 30 348 84 118 127 115 103 79 26 300 38 76 8 3 24 26 61 306 307 340 339 270 265 279 278 207 208 213 181 209 226 222 225 219 221
181 189 155 151 141 136 119 109 123 134 136 106 41 76 56 49 89 10 346 10 9 18 15 47 74 146 87 67 81 86 349 360 13 13 22 39 54 64 75 82 104 115 103 77 69 108 122 133 135 121 107 99 94 50 34 97 120 122 114 85 20 0 3 45 71 0 346 60 58 104 276 290 29 349 240 257 311 25 186 210 220 201 230 236 228 237 229 229
175 194 175 164 157 156 133 128 137 145 156 77 21 162 109 132 122 91 80 76 71 74 78 81 79 103 84 67 65 52 5 11 22 27 41 52 59 63 66 79 100 107 108 95 88 106 115 131 120 92 77 125 114 67 94 111 98 114 95 83 346 1 45 8 45 347 356 67 318 78 325 298 201 231 242 270 347 16 201 222 233 227 241 248 242 250 242 241
159 186 189 179 179 184 167 163 159 162 171 74 253 205 177 167 140 123 101 87 82 78 75 75 42 74 81 63 4 31 23 23 35 56 60 59 64 68 70 77 88 95 107 105 103 104 107 117 103 92 89 107 115 137 123 78 69 98 38 91 0 5 25 335 5 341 55 37 321 30 328 293 256 247 255 303 18 106 225 235 238 240 248 256 255 259 254 251
156 185 198 197 200 200 197 189 180 190 181 128 195 171 205 179 138 138 109 59 55 57 48 68 73 75 79 91 355 39 34 40 55 59 55 64 73 73 75 77 82 85 91 95 94 95 100 100 96 94 72 87 124 123 79 21 41 59 1 70 32 28 284 304 331 67 93 13 355 66 205 274 276 272 283 305 196 164 226 240 238 244 249 256 256 255 260 258
161 193 205 202 204 203 204 191 184 204 173 151 148 127 149 149 124 113 89 63 63 62 73 83 92 91 79 70 6 41 49 53 48 37 35 54 66 70 76 78 80 81 84 87 88 89 90 86 80 77 58 41 80 87 48 3 24 34 10 314 355 67 274 305 327 98 99 358 19 73 211 273 280 277 297 328 170 185 232 245 244 246 250 254 256 256 259 264
171 203 210 197 196 195 195 187 179 172 156 141 125 121 111 96 85 78 61 44 52 25 62 70 76 97 93 50 20 34 38 35 26 24 31 42 51 61 71 77 81 79 79 78 81 76 64 69 66 60 87 46 58 80 56 31 2 353 72 219 307 50 299 321 359 2 60 66 11 48 234 277 278 271 296 340 112 210 250 256 253 247 249 250 252 257 259 270
182 215 208 192 186 185 187 175 159 149 143 133 120 114 107 88 56 73 50 51 63 59 89 80 67 85 79 1 34 11 358 3 8 21 32 36 42 54 69 80 70 61 71 58 55 48 36 51 70 10 66 59 62 77 57 24 321 322 37 84 239 204 281 310 318 346 43 66 314 8 233 258 266 274 287 289 186 208 243 251 253 249 251 254 253 259 259 263
190 211 190 184 182 178 178 161 147 140 135 127 117 112 107 94 78 74 64 78 87 78 89 62 38 73 58 354 19 320 319 338 3 21 26 26 35 46 53 54 7 331 18 35 31 27 12 27 74 65 33 17 29 63 92 228 228 205 173 130 276 290 234 276 280 255 60 60 259 245 255 262 272 280 282 287 203 205 233 244 256 260 257 257 255 255 256 258
186 185 175 176 179 172 167 156 143 136 134 130 124 121 113 94 79 61 50 54 65 69 87 8 12 106 198 327 325 317 328 344 4 19 18 11 13 34 37 33 28 23 37 25 11 16 26 32 45 62 33 9 6 58 133 175 160 163 176 142 150 251 261 248 264 269 174 130 250 227 245 268 280 284 280 291 216 207 245 260 265 266 261 257 255 252 253 254
182 172 170 170 171 165 159 153 143 138 137 140 136 122 117 83 44 23 36 45 68 114 112 295 34 113 64 348 329 336 359 13 20 24 17 4 356 8 11 15 29 44 51 32 340 1 68 60 45 67 291 307 279 186 117 120 110 114 111 90 124 196 288 263 283 310 229 166 260 229 249 270 275 277 274 290 345 232 250 258 257 254 251 250 249 254 252 247
181 168 170 167 163 158 157 153 142 142 145 156 149 105 160 150 64 267 29 44 77 105 59 105 148 85 71 358 348 353 16 46 22 23 17 2 5 8 337 16 45 34 11 265 281 344 57 74 46 269 240 283 281 144 92 77 73 77 98 71 34 204 259 268 68 313 315 204 273 327 307 276 267 269 272 283 236 238 234 232 248 247 245 251 248 254 256 257
180 172 172 166 161 159 160 153 139 147 160 173 148 80 163 168 118 135 127 84 11 25 53 51 37 16 23 18 5 8 50 47 5 8 8 1 17 33 332 40 72 58 344 344 348 11 41 88 251 279 194 58 41 64 68 72 79 64 88 89 335 271 272 300 349 334 353 207 274 355 339 286 274 269 269 252 220 239 233 221 237 236 238 245 239 247 257 267
179 175 176 170 164 163 162 155 143 148 156 166 100 89 120 120 120 119 104 94 20 4 25 33 36 357 358 21 9 19 64 56 334 340 356 1 21 56 62 65 75 71 1 15 96 83 36 228 236 67 126 72 27 25 50 65 68 67 92 112 277 299 342 311 314 331 333 205 274 328 321 285 286 287 270 242 219 255 264 239 244 234 233 240 239 242 244 254
180 176 178 176 168 167 168 160 149 137 139 139 101 118 128 119 119 113 89 88 56 8 8 27 124 39 20 13 3 26 91 79 219 322 350 10 76 41 73 109 84 56 5 26 104 106 73 272 149 85 65 97 79 21 44 61 13 347 134 127 269 300 318 265 288 321 325 12 356 339 324 287 308 318 272 264 289 278 291 279 261 246 239 246 263 256 236 239
181 178 178 179 174 170 169 162 132 122 120 122 128 133 128 117 109 93 80 78 20 326 339 8 111 68 46 12 1 20 133 62 58 304 344 19 75 33 72 122 87 81 256 73 82 83 70 300 141 86 44 60 92 34 28 97 346 316 211 161 209 200 256 301 328 356 10 7 11 20 353 290 315 312 258 290 337 286 304 303 262 256 249 239 251 253 242 241
180 180 176 180 178 167 166 164 121 120 106 117 139 138 126 102 69 62 79 68 352 290 317 336 17 33 359 354 353 43 113 3 312 324 3 21 18 116 84 354 53 115 195 141 86 88 82 26 58 111 79 55 57 31 328 118 95 335 254 186 152 128 71 13 15 30 24 301 328 55 75 270 312 306 261 300 324 289 296 283 261 260 255 234 234 243 241 242
180 179 176 180 178 167 168 181 160 138 103 139 144 138 116 74 58 48 63 49 326 259 79 304 336 35 357 329 346 74 136 301 321 10 18 18 352 86 82 338 53 86 181 146 66 33 53 14 32 62 69 54 38 21 1 99 102 269 238 129 115 76 51 58 56 53 236 277 329 30 96 237 296 282 270 316 311 287 290 275 266 259 248 241 238 240 237 234
179 176 175 179 178 172 167 159 166 156 135 150 145 138 122 72 48 53 78 83 284 54 74 302 358 32 353 346 27 72 197 312 65 328 351 28 6 33 78 129 133 116 6 108 266 279 28 12 36 66 65 60 325 272 190 101 68 268 224 137 115 96 106 105 77 18 301 351 320 333 35 228 270 277 305 351 296 277 272 255 254 250 243 241 240 242 238 233
178 174 175 179 180 179 176 143 161 161 152 150 140 142 149 85 48 61 77 140 261 44 47 350 52 1 344 17 23 28 19 19 73 303 334 35 27 42 87 153 131 120 37 52 144 183 49 263 193 112 82 111 230 268 136 119 322 264 175 121 76 75 78 77 77 134 12 12 264 293 7 358 271 283 314 4 278 259 254 248 249 246 245 240 239 244 240 234
178 176 176 180 182 186 187 162 160 161 155 147 131 142 136 61 63 68 69 228 229 46 272 347 277 327 24 58 13 4 39 10 325 334 346 30 24 39 94 161 113 102 32 39 81 116 321 269 200 95 82 160 150 79 135 197 283 273 121 49 36 32 38 58 55 87 50 324 256 266 320 19 292 284 254 215 225 223 225 249 257 250 252 242 236 240 232 221
179 178 179 180 181 187 185 173 173 167 160 148 129 125 93 48 67 95 198 236 139 264 321 0 318 16 54 106 66 2 35 356 329 3 20 10 14 24 57 91 87 65 14 27 47 346 352 11 328 31 33 114 91 48 347 266 309 58 86 38 23 350 5 29 353 34 78 275 262 262 281 145 239 267 249 239 252 229 207 225 233 229 233 230 226 228 223 214
180 181 182 179 180 188 186 181 176 169 166 155 118 87 81 73 80 161 234 301 7 239 186 75 298 43 57 86 55 350 359 13 2 45 69 30 32 27 56 152 170 29 344 310 20 355 9 348 305 335 16 92 87 35 344 325 356 44 55 55 41 347 359 2 323 347 208 247 264 274 295 208 233 252 257 260 262 245 221 220 222 220 222 222 219 218 213 207
180 181 181 179 180 187 187 180 174 171 170 160 98 56 75 99 220 210 226 335 30 279 36 75 28 69 76 68 45 321 321 47 7 45 124 114 56 27 289 193 166 87 278 227 1 8 338 312 335 28 356 62 105 120 309 301 17 56 87 93 89 59 27 320 288 307 281 266 274 277 288 278 276 270 247 245 255 254 238 232 233 232 230 232 233 223 217 215
176 178 182 177 167 179 182 168 167 168 168 146 76 63 87 149 224 201 220 251 250 334 20 74 50 51 57 79 244 274 111 50 345 34 34 29 56 11 271 256 97 93 104 125 138 73 351 296 338 67 338 33 63 196 189 178 91 100 170 124 124 148 134 260 246 257 284 293 298 295 271 207 244 275 234 231 260 282 268 254 255 255 250 255 269 254 230 226
173 174 174 163 148 152 161 157 155 159 160 123 64 78 139 207 233 182 216 229 214 358 19 38 70 62 19 342 321 289 166 190 354 47 30 33 164 194 213 218 213 116 114 151 237 113 116 260 273 322 312 82 309 257 141 89 96 207 171 96 94 173 146 177 197 193 242 316 302 272 239 213 225 274 278 279 283 279 273 274 268 260 262 268 264 247 227 225
169 166 161 152 143 145 157 154 143 144 145 106 73 147 197 220 201 175 186 161 153 153 125 63 69 80 340 305 344 350 356 161 44 59 356 282 201 200 201 212 203 156 139 157 205 144 92 279 297 349 342 105 244 268 335 359 262 184 116 155 233 158 116 112 217 333 68 3 288 266 264 290 317 295 303 346 320 291 287 280 256 254 273 275 246 237 229 227
164 156 147 135 133 151 165 162 145 129 112 95 120 206 218 218 180 170 152 113 134 133 117 121 162 144 201 225 284 310 335 273 344 68 229 265 236 198 191 229 201 173 171 169 198 178 140 285 301 30 15 271 236 252 321 296 178 93 122 213 224 111 84 92 347 346 40 295 281 304 274 294 343 301 313 346 330 302 289 275 273 274 270 254 245 239 235 232
155 140 129 128 143 158 169 175 169 126 80 95 176 234 209 179 177 155 140 129 119 98 110 150 182 190 184 176 232 255 173 209 282 109 174 243 261 196 165 181 148 156 254 192 179 165 119 282 299 342 166 301 6 71 312 319 58 100 161 195 122 130 81 59 128 300 357 291 289 306 296 275 207 238 290 312 299 289 289 291 284 263 242 237 243 241 238 238
147 125 107 154 157 156 159 171 168 96 71 139 207 244 201 197 259 196 163 159 117 104 140 184 146 91 169 169 188 212 185 194 198 173 174 184 249 201 150 156 139 296 289 114 132 179 95 88 287 277 207 295 1 134 238 289 31 33 351 351 17 160 165 110 136 176 203 271 287 315 321 281 223 215 230 259 264 264 279 286 261 246 239 236 240 240 237 230
142 109 260 178 158 156 152 146 125 83 91 180 199 218 221 238 253 256 0 3 133 109 169 181 146 136 177 186 188 179 162 168 166 172 201 195 227 244 192 144 138 161 280 30 95 104 59 91 252 287 307 266 250 212 201 184 145 97 94 336 314 174 145 139 327 138 143 167 205 297 310 276 247 204 203 245 264 252 247 259 258 255 252 247 242 241 238 229
131 105 244 173 153 154 142 114 83 113 128 165 194 208 232 191 156 11 359 27 77 316 154 146 142 153 161 172 206 182 141 139 165 176 223 216 203 233 317 108 142 157 141 82 108 158 96 135 192 284 302 224 239 252 220 189 167 156 170 190 185 151 120 116 301 310 99 149 182 161 282 275 260 195 208 241 263 253 238 243 261 266 258 253 248 237 231 230
120 174 227 162 160 158 134 90 359 130 120 183 206 178 170 137 111 106 351 32 49 41 75 107 125 144 157 165 184 167 142 148 180 184 211 210 194 196 351 40 135 145 123 134 213 216 133 111 117 252 232 224 264 289 298 200 148 132 166 174 147 139 124 131 219 262 112 136 179 115 255 273 268 190 214 239 253 259 250 235 255 271 266 260 258 247 236 234
130 181 168 136 166 161 126 82 283 23 163 247 249 47 35 114 101 123 190 48 76 103 45 37 161 162 191 164 137 168 177 174 179 185 208 212 205 231 303 333 213 113 99 134 187 171 116 102 98 287 292 314 316 321 349 18 78 99 273 184 143 159 144 147 175 183 157 187 170 107 258 269 280 244 225 243 263 276 270 240 243 265 272 265 261 257 245 240
137 151 97 114 169 168 144 160 189 205 244 287 33 41 333 84 117 139 179 190 192 147 125 192 183 154 185 123 112 175 196 186 190 199 199 192 205 359 12 289 287 111 101 154 158 155 221 148 108 10 332 340 346 348 339 330 253 210 244 221 177 132 104 117 147 107 257 221 169 152 251 259 271 303 285 274 287 292 275 243 225 247 268 271 264 260 251 246
119 93 6 28 100 127 159 178 153 149 178 126 96 148 154 39 71 156 164 164 176 159 147 213 170 102 91 87 80 113 135 42 206 204 118 185 239 349 28 336 346 80 332 282 275 173 202 167 129 127 188 264 284 286 268 247 222 230 226 209 211 159 129 148 138 113 239 234 160 169 243 263 276 296 291 281 287 292 283 266 236 239 256 267 269 265 257 249
138 102 309 331 15 65 104 144 119 128 157 145 131 201 161 130 313 329 129 143 152 140 104 351 150 94 75 109 103 80 342 22 51 125 172 206 257 326 343 14 52 83 254 248 302 50 103 171 179 162 187 212 207 218 221 168 146 206 216 205 202 195 168 136 116 165 200 176 183 222 241 274 284 283 282 281 276 273 278 281 278 268 262 264 267 266 260 251
155 166 162 163 15 63 46 351 119 125 166 169 167 191 173 160 165 5 25 207 163 123 91 63 150 150 164 162 145 154 192 46 32 139 172 183 251 318 316 26 60 334 307 233 265 88 96 273 234 186 220 236 200 209 215 154 200 213 207 207 197 191 171 151 185 212 159 128 255 247 224 252 273 275 279 283 277 264 270 277 277 276 273 269 271 271 266 261
172 183 172 145 154 180 199 206 164 124 150 174 165 162 168 170 172 172 190 348 19 189 160 162 230 201 187 172 155 160 151 64 318 222 154 123 133 16 357 359 327 333 18 29 320 102 120 242 231 179 258 276 252 238 206 180 239 229 204 215 202 178 174 193 216 211 160 189 252 255 214 228 261 274 277 278 281 282 280 276 271 274 278 278 280 278 271 265
124 138 358 29 153 185 182 163 144 130 151 167 148 167 174 181 192 196 150 96 310 269 186 203 246 217 190 177 141 146 171 167 228 229 181 148 163 129 81 217 249 351 48 85 329 130 149 228 220 149 287 295 312 325 226 194 261 281 242 231 206 184 194 209 224 216 198 230 253 262 264 263 267 270 271 276 285 292 287 282 278 275 276 277 275 271 268 267
160 166 150 54 70 113 95 116 135 142 158 173 196 206 176 178 192 204 160 148 169 223 187 208 235 209 179 179 155 177 202 172 152 210 174 144 173 193 190 195 165 61 35 119 56 301 206 244 203 100 337 300 314 8 27 149 213 258 262 250 211 200 215 226 239 229 216 246 257 264 278 279 269 265 268 277 289 298 290 281 277 272 269 271 271 268 266 267
162 159 148 123 107 128 112 106 126 142 165 197 203 201 182 191 192 181 189 186 161 167 186 192 186 130 99 176 201 232 218 169 131 207 179 156 168 196 202 178 147 134 144 168 131 123 163 229 29 74 11 286 313 10 350 344 215 249 267 258 224 209 215 222 228 205 200 231 252 266 271 263 263 273 286 282 282 289 283 277 280 279 268 260 265 269 268 265
132 128 137 125 124 186 144 117 122 155 185 191 179 177 188 199 187 169 183 230 142 170 195 178 157 117 94 194 224 231 204 173 153 168 161 136 103 103 97 100 122 135 159 158 128 135 142 142 145 109 167 270 300 345 327 348 342 271 261 242 215 208 219 233 243 220 207 213 233 244 241 249 266 299 308 292 289 290 284 281 283 283 279 268 260 264 268 267